TRA98G EHAM-GCLP

Flight info

Callsign TRA98G
Flight time N/A
Altitude 23000
Route WOODY N872 CIV/N0456F330 N872 MEDIL DCT KOVIN DCT NIDUV DCT KIHVI DCT PON DCT DITAL DCT GODIX DCT DIDAK DCT KURIS DCT TERPO DCT ERIGA DCT FUJTI DCT BAKUP DCT BATAX DCT BABEX DCT OSLAD/N0459F350 UR724 IBALU UN857 TERTO
Aircraft B738/M-SDE2E3FGHIJ1RWXYZ/LB1

Departure

Time 2026-05-04 05:51
Airport Amsterdam Airport Schiphol (EHAM)

Arrival

Time N/A
Airport Gran Canaria Airport (GCLP)
Time Latitude Longitude Altitude Speed Heading
2026-05-04 04:54 52.30545 4.76805 -2 ft 0 kts 293°
2026-05-04 05:41 52.30536 4.76836 -2 ft 4 kts 294°
2026-05-04 05:41 52.30528 4.76867 -2 ft 4 kts 291°
2026-05-04 05:41 52.30519 4.76904 -2 ft 4 kts 266°
2026-05-04 05:41 52.30525 4.76918 -2 ft 4 kts 174°
2026-05-04 05:42 52.30552 4.76912 -2 ft 4 kts 172°
2026-05-04 05:42 52.30565 4.76909 -2 ft 1 kts 172°
2026-05-04 05:47 52.30419 4.77099 -2 ft 9 kts 77°
2026-05-04 05:47 52.30450 4.77182 -2 ft 8 kts 58°
2026-05-04 05:47 52.30481 4.77261 -2 ft 8 kts 58°
2026-05-04 05:48 52.30510 4.77339 -2 ft 8 kts 57°
2026-05-04 05:48 52.30540 4.77413 -2 ft 8 kts 57°
2026-05-04 05:48 52.30567 4.77486 -2 ft 7 kts 64°
2026-05-04 05:48 52.30551 4.77556 -2 ft 7 kts 148°
2026-05-04 05:49 52.30508 4.77594 -2 ft 7 kts 152°
2026-05-04 05:49 52.30466 4.77631 -2 ft 7 kts 152°
2026-05-04 05:49 52.30421 4.77644 -2 ft 7 kts 200°
2026-05-04 05:49 52.30394 4.77584 -3 ft 7 kts 238°
2026-05-04 05:51 52.26921 4.68895 2013 ft 200 kts 221°
2026-05-04 05:51 52.25626 4.67959 2300 ft 214 kts 179°
2026-05-04 05:52 52.24205 4.68702 2744 ft 223 kts 145°
2026-05-04 05:52 52.22917 4.70126 3406 ft 224 kts 152°
2026-05-04 05:52 52.21515 4.71231 4105 ft 225 kts 154°
2026-05-04 05:52 52.20102 4.72372 4725 ft 228 kts 153°
2026-05-04 05:53 52.18668 4.73537 5381 ft 230 kts 153°
2026-05-04 05:54 52.06481 4.78838 9352 ft 277 kts 167°
2026-05-04 05:55 52.04588 4.79565 9997 ft 280 kts 167°
2026-05-04 05:55 52.02660 4.80308 10413 ft 293 kts 166°
2026-05-04 05:55 52.00606 4.81098 10583 ft 313 kts 168°
2026-05-04 05:55 51.98384 4.81251 10709 ft 333 kts 192°
2026-05-04 05:56 51.96179 4.79846 10888 ft 351 kts 206°
2026-05-04 05:56 51.93950 4.78026 11122 ft 365 kts 206°
2026-05-04 05:56 51.91653 4.76167 11614 ft 371 kts 206°
2026-05-04 05:56 51.89356 4.74341 12214 ft 373 kts 206°
2026-05-04 05:57 51.87015 4.72505 12802 ft 375 kts 206°
2026-05-04 05:57 51.84658 4.70665 13352 ft 378 kts 206°
2026-05-04 05:57 51.82271 4.68806 13896 ft 382 kts 206°
2026-05-04 05:57 51.79872 4.66939 14431 ft 384 kts 206°
2026-05-04 05:58 51.77461 4.65063 14956 ft 387 kts 206°
2026-05-04 05:58 51.75014 4.63161 15473 ft 390 kts 206°
2026-05-04 05:58 51.72559 4.61254 15991 ft 393 kts 206°
2026-05-04 05:58 51.70094 4.59342 16490 ft 395 kts 206°
2026-05-04 05:59 51.67605 4.57414 16966 ft 398 kts 206°
2026-05-04 05:59 51.65098 4.55474 17441 ft 401 kts 206°
2026-05-04 05:59 51.62573 4.53520 17905 ft 403 kts 206°
2026-05-04 05:59 51.60037 4.51559 18363 ft 406 kts 206°
2026-05-04 06:00 51.57481 4.49585 18804 ft 408 kts 206°
2026-05-04 06:00 51.54912 4.47603 19245 ft 411 kts 205°
2026-05-04 06:00 51.52323 4.45607 19666 ft 413 kts 205°
2026-05-04 06:00 51.49726 4.43608 20074 ft 416 kts 205°
2026-05-04 06:01 51.47139 4.41618 20472 ft 418 kts 205°
2026-05-04 06:01 51.44506 4.39596 20867 ft 421 kts 205°
2026-05-04 06:03 51.25617 4.25338 23325 ft 436 kts 205°
2026-05-04 06:03 51.22869 4.23237 23643 ft 438 kts 205°
2026-05-04 06:05 51.02711 4.10834 25623 ft 451 kts 198°
2026-05-04 06:05 50.96738 4.07611 26127 ft 455 kts 199°
2026-05-04 06:05 50.93736 4.05973 26366 ft 456 kts 199°
2026-05-04 06:06 50.90725 4.04334 26604 ft 458 kts 199°
2026-05-04 06:06 50.87712 4.02691 26835 ft 460 kts 200°
2026-05-04 06:06 50.84710 4.00892 27120 ft 459 kts 201°
2026-05-04 06:06 50.81753 3.98987 27456 ft 458 kts 202°
2026-05-04 06:07 50.78817 3.97054 27812 ft 456 kts 202°
2026-05-04 06:07 50.75885 3.95128 28099 ft 456 kts 202°
2026-05-04 06:07 50.72985 3.93244 28376 ft 456 kts 202°
2026-05-04 06:07 50.70010 3.91330 28675 ft 455 kts 202°
2026-05-04 06:08 50.67115 3.89481 28976 ft 455 kts 202°
2026-05-04 06:08 50.64186 3.87615 29253 ft 454 kts 202°
2026-05-04 06:08 50.61261 3.85755 29520 ft 454 kts 202°
2026-05-04 06:08 50.58329 3.83892 29792 ft 453 kts 202°
2026-05-04 06:09 50.55411 3.82005 30067 ft 452 kts 203°
2026-05-04 06:09 50.52527 3.80047 30324 ft 452 kts 204°
2026-05-04 06:11 50.32449 3.66316 32001 ft 448 kts 203°
2026-05-04 06:11 50.29585 3.64380 32218 ft 448 kts 203°
2026-05-04 06:13 50.09611 3.50936 33640 ft 445 kts 203°
2026-05-04 06:14 49.92600 3.39579 34746 ft 441 kts 203°
2026-05-04 06:14 49.89772 3.37700 34894 ft 441 kts 203°
2026-05-04 06:15 49.86946 3.35824 35002 ft 442 kts 203°
2026-05-04 06:15 49.84144 3.33967 34995 ft 444 kts 203°
2026-05-04 06:15 49.78468 3.30211 34993 ft 441 kts 203°
2026-05-04 06:16 49.72840 3.26496 34996 ft 438 kts 203°
2026-05-04 06:16 49.67243 3.22811 35000 ft 436 kts 203°
2026-05-04 06:17 49.61663 3.19146 35004 ft 435 kts 203°
2026-05-04 06:17 49.56090 3.15493 35004 ft 435 kts 203°
2026-05-04 06:18 49.50633 3.11606 34980 ft 436 kts 214°
2026-05-04 06:18 49.48297 3.08650 35017 ft 435 kts 226°
2026-05-04 06:20 49.37374 2.80460 35005 ft 443 kts 240°